DELTA 1 DEB, 10707

Orbit data source: Space-Track

DELTA 1 DEB, 10707 is space debris in LEO originally from a launch on Thu, 29 Jul 1976 UTC launched from the Air Force Western Test Range (AFWTR). Debris objects in space refer to the collection of defunct objects orbiting the Earth. Examples of debris include non-operational satellites, rocket bodies, and fragments generated from explosions, collisions, or faulty payload assembly.

Loading next visibility...
Identifier
10707, 1976-077AC
Orbit
LEO
Country
Flag of USUS
Related business
Manufacturer
Unknown
Mission
Spacecraft
Bus & Motor
Unknown
Mass
Unknown
Launch date (UTC)
1976-07-29 (50 years ago)
Launch vehicle
Unknown
Launch site
Air Force Western Test Range (AFWTR)
Object type
Payload
Rocket body
Debris
Shape & HBR
Unknown shape, 0.1 m
Radar Cross Section
Small (<0.1 m²)

Expand to show TLE details & history
Last TLE update: 12 hours ago

TLE from 12 hours ago
0 DELTA 1 DEB
1 10707U 76077AC  26073.51612507  .00000238  00000-0  31548-2 0  9993
2 10707 102.1961  90.7903 0267892 105.6732  48.2666 11.98445107141012
Epoch: 2026-03-14T12:23Z
TLE epoch observation values (Epoch: 2026-03-14T12:23:13.206Z)
Latitude
23.17179°
Longitude
-81.86885°
Altitude
1,549.709 km
Speed
7.155 km/s
True Right ascension
18h 24m 17s
True Declination
23° 03' 36"
Sunlit
Object was in daylight at epoch
Visualization orbit readout
Latitude
Unknown
Longitude
Unknown
Altitude
Unknown
Speed
Unknown
Apparent Right ascension
Unknown
Apparent Declination
Unknown
Sunlit
N/A
Visualization observer readout
Local Sidereal Time
04:51:43
Azimuth
Unknown
Elevation
Unknown
Doppler factor
Unknown
Orbital elements
Apogee altitude
1,901.485 km
Perigee altitude
1,469.45 km
Semi-major axis
8,063.605 km
Eccentricity
0.02679
Inclination
102.1961°
RAAN
90.7903°
Arg. of periapsis
105.6732°
True anomaly
50.60898°
Mean anomaly
48.2666°
Eccentric anomaly
49.43258°
Mean motion
2.99743 °/min
Orbital period
120.1 mins
BSTAR
0.0031548
Loading maneuver chart data...
Computing Atmospheric mass density...
Loading historical data...
Loading historical data...
Loading historical data...
Loading historical data...
Loading historical data...
Loading historical data...
Loading historical data...

Documentation

Showing up to 5 results
|